Regional Weather Roundup
Issued by NWS San Angelo, TX

Home | Current Version | Previous Version | Text Only | Print | Product List | Glossary On
Versions: 1 2 3 4 5 6 7 8 9 10 11 12 13 14 15 16 17 18 19 20 21 22 23 24 25 26 27 28 29 30 31 32 33 34 35 36 37 38 39 40 41 42 43 44 45 46 47 48 49 50
000
ASUS44 KSJT 230610
RWRSJT
WEST CENTRAL TEXAS REGIONAL WEATHER ROUNDUP
NATIONAL WEATHER SERVICE SAN ANGELO TX
100 AM CDT SUN JUL 23 2017

NOTE: "FAIR" INDICATES FEW OR NO CLOUDS BELOW 12,000 FEET WITH NO
SIGNIFICANT WEATHER AND/OR OBSTRUCTIONS TO VISIBILITY.

TXZ049-054-064>066-071>073-076>078-098-099-113-114-127-128-139-140-
154-155-168>170-230700
...LOCATIONS ACROSS WEST CENTRAL TEXAS...

CITY           SKY/WX    TMP DP  RH WIND       PRES   REMARKS
SAN ANGELO     CLOUDY    83  64  52 W7        29.97R
ABILENE        PTCLDY    83  62  49 S5        29.96R
DYESS AFB      CLOUDY    84  63  48 S6        29.95S
JUNCTION       CLEAR     85  66  53 S8        29.97R
SWEETWATER     CLOUDY    73  68  84 SW15G21   30.07R THUNDER VSB 3/4
BROWNWOOD      PTCLDY    81  63  54 CALM      29.95S
COLEMAN        CLEAR     85  58  40 S6        29.96S
SONORA         CLOUDY    81  63  54 CALM      30.02S
OZONA          FAIR      77  63  61 NE5       30.03F
BRADY          NOT AVBL
$$

TEXAS PANHANDLE/OKLAHOMA PANHANDLE

CITY           SKY/WX    TMP DP  RH WIND       PRES   REMARKS
AMARILLO       PTCLDY    73  60  63 S7        30.08R
BORGER         CLOUDY    82  57  42 SW12      30.02F
CANADIAN       CLOUDY    82  61  48 CALM      29.97S
DALHART        CLOUDY    73  63  70 NW7       30.10F
DUMAS          PTCLDY    73  60  62 NW6       30.07S
GUYMON         NOT AVBL
HEREFORD       CLOUDY    74  59  59 N7        30.11F
PAMPA          HVY RAIN  75  64  67 SW14      30.05S
PERRYTON       MOCLDY    81  60  48 S8        29.99S
$$

SOUTHERN PANHANDLE/SOUTH PLAINS/ROLLING PLAINS

CITY           SKY/WX    TMP DP  RH WIND       PRES   REMARKS
LUBBOCK        MOCLDY    77  61  57 S8        30.05R
SNYDER         CLOUDY    79  67  66 SE3       30.02R
CHILDRESS      CLOUDY    81  65  58 CALM      29.96F
SEMINOLE       PTCLDY    73  62  67 SW5       30.07S
$$

PERMIAN BASIN

CITY           SKY/WX    TMP DP  RH WIND       PRES   REMARKS
MIDLAND        CLOUDY    74  63  68 SW13      30.01F
ODESSA         CLOUDY    74  63  68 SW9       30.03F
WINK           CLOUDY    72  66  81 S8        30.02F
$$

FAR WEST/SOUTHWEST MOUNTAINS/TRANS PECOS

CITY           SKY/WX    TMP DP  RH WIND       PRES   REMARKS
ALPINE         CLOUDY    66  66  97 CALM      30.21F
DRYDEN           N/A     80  64  58 N8        29.96S
EL PASO        MOCLDY    73  69  87 E5        30.07R
FORT STOCKTON  CLOUDY    70  67  90 S8        30.02F
GUADALUPE PASS CLOUDY    69  61  75 S6        30.22R
MARFA          CLOUDY    67  64  90 NE12      30.18S
PECOS          CLOUDY    73  67  80 S8        30.03F
$$

DALLAS/FORT WORTH METROPLEX

CITY           SKY/WX    TMP DP  RH WIND       PRES   REMARKS
DFW AIRPORT    PTCLDY    87  71  58 S14       29.89S
FTW MEACHAM    CLEAR     87  72  60 S12G22    29.89F
DAL-EXECUTIVE  CLEAR     85  72  65 S9        29.90F
GRAND PRAIRIE  CLEAR     85  69  58 SE9       29.92S
ADDISON        CLEAR     86  72  62 S7        29.92S
MESQUITE       CLEAR     80  73  77 S7        29.91S
LANCASTER      CLEAR     81  72  73 S5        29.92S
$$

NORTH CENTRAL TEXAS

CITY           SKY/WX    TMP DP  RH WIND       PRES   REMARKS
SHRMAN/DENISON CLEAR     83  70  65 S8        29.91S
GAINESVILLE    CLEAR     80  71  73 CALM      29.92F
BRIDGEPORT     CLEAR     83  67  58 S7        29.92S
DENTON         CLEAR     84  71  65 S8        29.89F
WAXAHACHIE     CLEAR     82  72  72 S7        29.93F
GRANBURY       CLEAR     86  67  53 SE7       29.92S
$$

WESTERN NORTH TEXAS

CITY           SKY/WX    TMP DP  RH WIND       PRES   REMARKS
WICHITA FALLS  CLEAR     84  67  56 S12       29.89S
VERNON         CLOUDY    85  58  39 W3        29.93S
BRECKENRIDGE   PTCLDY    87  61  40 S10       29.91F
COMANCHE       CLEAR     79  64  58 S7        29.95S
$$

CENTRAL AND SOUTH CENTRAL TEXAS

CITY           SKY/WX    TMP DP  RH WIND       PRES   REMARKS
AUSTIN/BERGSTM PTCLDY    82  73  74 S8        29.95R
WACO           CLEAR     83  73  72 S10       29.92S
HILLSBORO      CLEAR     83  73  71 SE9       29.93S
TEMPLE         CLEAR     84  72  67 S15       29.94R
KILLEEN-GRAY   CLEAR     84  70  62 S10       29.94R
FORT HOOD      CLEAR     83  69  61 S8        29.91S
GEORGETOWN     NOT AVBL
LAGO VISTA     FAIR      83  72  70 S9        29.98S
SAN MARCOS     CLEAR     81  66  61 S7        29.97S
NEW BRAUNFELS  CLEAR     80  73  79 S6        29.95R
RANDOLPH AFB   PTCLDY    79  76  91 SE6       29.96R
SAN ANTONIO    PTCLDY    82  72  71 SE9       29.96R
STINSON        CLEAR     83  73  72 SE6       29.92S
PLEASANTON     NOT AVBL
LA GRANGE      CLEAR     82  77  87 S7        29.94S
GIDDINGS       PTCLDY    81  74  79 S7        29.96S
$$

EAST TEXAS

CITY           SKY/WX    TMP DP  RH WIND       PRES   REMARKS
PARIS            N/A     79  74  84 S6          N/A
CLARKSVILLE    NOT AVBL
TYLER          PTCLDY    82  76  81 S12       29.92F
LONGVIEW       CLOUDY    81  77  88 S8        29.92R
PALESTINE      CLEAR     80  73  78 S6        29.95S
NACOGDOCHES    CLEAR     79  73  83 S3        29.93S
$$

TEXAS HILL COUNTRY AND EDWARDS PLATEAU

CITY           SKY/WX    TMP DP  RH WIND       PRES   REMARKS
LLANO          CLEAR     84  70  61 CALM      29.98S
HORSESHOE BAY  FAIR      83  72  67 S7        29.96R
KERRVILLE      CLEAR     82  75  81 SE9       30.00R
FREDERICKSBRG  CLEAR     81  69  66 S5        30.00R
ROCKSPRINGS    CLEAR     82  72  69 SE10      30.03S
HONDO          CLEAR     84  73  69 SE10      29.95R
UVALDE         CLEAR     83  72  68 SE9       29.93S
DEL RIO        CLEAR     86  62  44 E6        29.88R
$$

SOUTHEAST TEXAS

CITY           SKY/WX    TMP DP  RH WIND       PRES   REMARKS
COLLEGE STN    CLEAR     81  76  84 S8        29.95R
CALDWELL       NOT AVBL
CROCKETT       CLEAR     77  73  88 CALM      29.97F
BRENHAM        CLEAR     81  76  85 S5        29.96R
HUNTSVILLE     CLEAR     78  72  81 S7        29.95S
CONROE         CLEAR     73  71  93 CALM      29.96S
HOUSTON BUSH   PTCLDY    80  76  87 S6        29.94F
HOUSTON HOBBY  PTCLDY    83  75  77 S7        29.94F
PERLAND        CLEAR     83  75  77 S5        29.96F
WHARTON        CLOUDY    78  74  86 S5        29.96F
$$

THE UPPER TEXAS COAST

CITY           SKY/WX    TMP DP  RH WIND       PRES   REMARKS
ORANGE         PTCLDY    79  78  96 SW6       29.97S
PORT ARTHUR    CLEAR     78  76  93 S5        29.95S
GALVESTON      PTCLDY    85  76  74 S14       29.96F
ANGLETON       CLEAR     79  76  90 S8        29.95F
BAY CITY       PTCLDY    80  77  90 S7        29.95F
$$

TEXAS COASTAL BEND, RIO GRANDE PLAINS DEEP SOUTH TEXAS

CITY           SKY/WX    TMP DP  RH WIND       PRES   REMARKS
VICTORIA       CLEAR     81  76  84 S9        29.95S
BEEVILLE       FAIR      81  77  85 S13       29.93F
ROCKPORT       PTCLDY    84  76  76 S12G21    29.94R
PORT ARANSAS   CLEAR     83  76  77 S16       29.93F
PORT LAVACA    CLOUDY    81  75  82 S7        29.96R
CORPUS CHRISTI MOCLDY    81  77  88 S9        29.93R
KINGSVILLE NAS CLEAR     81  78  91 S10       29.93R
COTULLA        PTCLDY    87  67  51 SE16      29.90R
LAREDO         CLEAR     86  67  52 SE16G22     N/A
BROWNSVILLE    CLEAR     81  77  88 S13       29.94S
PORT ISABEL    CLEAR     83  78  85 S13       29.94S
HEBBRONVILLE   CLEAR     80  70  70 S9        29.94R
MCALLEN        CLEAR     83  75  77 SE13      29.93S
WESLACO        CLEAR     82  75  80 S13       29.93S
FALFURRIAS     CLEAR     81  73  78 SE6       29.93R
EDINBURG       CLEAR     83  74  74 SE10      29.94R
$$




USA.gov is the U.S. government's official web portal to all federal, state and local government web resources and services.